COSMOS 2251 DEB, 36533

Orbit data source: Space-Track

COSMOS 2251 DEB, 36533 is space debris in LEO originally from a launch on Wed, 16 Jun 1993 UTC launched from the Plesetsk Missile And Space Complex (PKMTR). The debris from Iridium 33, an American commercial communications satellite, has been tracked extensively since its accidental collision with the defunct Russian satellite Cosmos 2251 in 2009. This event, occurring at high speed in low Earth orbit (LEO), generated thousands of pieces of space debris, significantly increasing the risk of further collisions. The Iridium 33 debris cloud has impacted space traffic management and orbital debris mitigation strategies, making it a subject of ongoing study in space situational awareness.

Loading next visibility...
Identifier
36533, 1993-036BCT
Orbit
LEO
Country
Flag of CISCIS
Related business
Manufacturer
Unknown
Mission
Spacecraft
Bus & Motor
Unknown
Mass
Unknown
Launch date (UTC)
1993-06-16 (33 years ago)
Launch vehicle
Unknown
Launch site
Plesetsk Missile And Space Complex (PKMTR)
Object type
Payload
Rocket body
Debris
Shape & HBR
Unknown shape, 0.1 m
Radar Cross Section
Small (<0.1 m²)

Expand to show TLE details & history
Last TLE update: 8 hours ago

TLE from 8 hours ago
0 COSMOS 2251 DEB
1 36533U 93036BCT 25354.02324946  .00001240  00000-0  32361-3 0  9995
2 36533  74.0124 101.1329 0049257 249.0324 110.5562 14.49840559845903
Epoch: 2025-12-20T00:33Z
TLE epoch observation values (Epoch: 2025-12-20T00:33:28.753Z)
Latitude
0.00001°
Longitude
3.90709°
Altitude
741.236 km
Speed
7.478 km/s
True Right ascension
06h 44m 31s
True Declination
0° 00' 00"
Sunlit
Object was in full shadow at epoch
Visualization orbit readout
Latitude
Unknown
Longitude
Unknown
Altitude
Unknown
Speed
Unknown
Apparent Right ascension
Unknown
Apparent Declination
Unknown
Sunlit
N/A
Visualization observer readout
Local Sidereal Time
07:10:02
Azimuth
Unknown
Elevation
Unknown
Doppler factor
Unknown
Orbital elements
Apogee altitude
758.762 km
Perigee altitude
688.798 km
Semi-major axis
7,101.917 km
Eccentricity
0.00493
Inclination
74.0124°
RAAN
101.1329°
Arg. of periapsis
249.0324°
True anomaly
111.08356°
Mean anomaly
110.5562°
Eccentric anomaly
110.81999°
Mean motion
3.62643 °/min
Orbital period
99.27 mins
BSTAR
0.00032361
Loading maneuver chart data...
Computing Atmospheric mass density...
Loading historical data...
Loading historical data...
Loading historical data...
Loading historical data...
Loading historical data...
Loading historical data...
Loading historical data...

Documentation

Showing up to 5 results
|